FENGYUN 1C DEB

Satellite information

Favourite Embed

Satellite Type and Status

DEBRISIN ORBIT

Key statistics

Satellite FENGYUN 1C DEB at a glance.

Uptime

9619

Days in orbit

Revolutions

≈ 13.9

Per day

Orbit

SSO

Sun Synchronous Orbit

Inclination

98.7

Latest

Satellite identification and parameters

Extended collection of information and parameters for FENGYUN 1C DEB.

Object identification

Identified? True

Debris? True

Object name: FENGYUN 1C DEB

International designator: 1999-025BDW

Object number (NORAD): 31028

Object ID (CCSDS): 31028

Country: PEOPLES REPUBLIC OF CHINA (PRC)

Current information (Y/N): Y

RCS size: SMALL

Orbital parameters

Period: 103.675 minutes

Inclination: 98.6904 deg

SMA: 7310.426 km

Apoapsis: 1052.684 km

Periapsis: 811.897 km

RAAN: 188.3312 deg

Eccentricy: 0.01646875

Argument of periapsis: 198.3217 deg

Mean anomaly: 161.1966 deg

Mean motion: 13.88956883 rev/day

Mean motion (dot): 0.00000361 rev/day2

B* drag term: 0.00029705531 1/REarth

Two-line elements (TLE)

Creation date: Sept. 7, 2025, 9:49 a.m.

Reference frame: TEME

Reference center: EARTH

Epoch: Sept. 7, 2025, 2:55 a.m. UTC

TLE line 0: 0 FENGYUN 1C DEB

TLE line 1: 1 31028U 99025BDW 25250.12182018 .00000361 00000-0 29706-3 0 9993

TLE line 2: 2 31028 98.6904 188.3312 0164688 198.3217 161.1966 13.88956883606621

Live tracking on map

Real-time ground track for satellite FENGYUN 1C DEB.

In-orbit conjunctions

A list of the most updated potential collisions computed for object FENGYUN 1C DEB.

Target Orbit TCA Probability of collision Miss distance Type
NOAA 16 DEB SSO 2025-02-19 19:18:55 0.0001211571 438.0 (m) DEBRIS
NOAA 16 DEB SSO 2024-09-28 20:09:16 0.0004028076 129.0 (m) DEBRIS

Associated space launch

Chinese polar orbiting meteorological satellite

FENGYUN 1C DEB was lifted into orbit during the mission ‘Long March 4B | Feng Yun 1C’, on board a Long March 4B space rocket.

The launch took place on May 10, 1999, 1:33 a.m. from Launch Complex 7.

For more information about the launch, click the button.

Launch to space Long March 4B | Feng Yun 1C
Long March 4B | Feng Yun 1C

Agency: N/A

Status: Launch Successful

Launch date: May 10, 1999, 1:33 a.m. UTC

Rocket: Long March 4B

Launch pad: Launch Complex 7

Location: Taiyuan Satellite Launch Center, People's Republic of China

...

Latest news about this satellite

There are no fresh news available about this satellite. Check back as we update our databases every day.


Newsletter sign-up

Weekly statistics, charts and insights to help you stay on top of the space industry.